Flag for Germany Weather past 2 weeks in Springe, Lower Saxony, Germany

Now
88 °F

Warm.


Feels Like: 88 °F
Forecast: 65 / 96 °F
Wind: 6 mph from Northeast

Location: Wunstorf Airport

Current Time: Jul 3, 2015 at 7:32:20 PM

Latest Report: Jul 3, 2015 at 6:20 PM


Visibility: 3 mi

Pressure: 30.21 "Hg

Humidity: 40%

Dew point: 61 °F

Location of SpringeLocation

Historic Weather in Springe — Graph

°F

Springe temperature yesterday

Maximum temperature yesterday: 90 °F (at 3:20 PM)
Minimum temperature yesterday: 61 °F (at 5:20 AM)
Average temperature yesterday: 78 °F

Past Weeks' High & Low Weather Summary

 TemperatureHumidityPressure
High90 °F (Jul 2, 3:20 PM)100% (Jun 22, 11:20 PM)30.27 "Hg (Jun 22, 11:20 PM)
Low48 °F (Jun 22, 11:20 PM)34% (Jun 30, 6:20 PM)29.65 "Hg (Jun 22, 9:20 PM)
Average63 °F69%30.05 "Hg
* Reported Jun 18 6:20 PM — Jul 3 6:20 PM, Springe, Weather by CustomWeather, © 2015

Note: Actual official high and low records may vary slightly from our data, if they occured in-between our weather recording intervals... More about our weather records

Advertising

Springe weather history for previous 24 hours

 ConditionsComfort  
Time TempWeatherWind HumidityBarometerVisibility
6:20 PM
Fri, Jul 3
88 °FWarm.6 mph40%30.21 "Hg3 mi
5:20 PM86 °FWarm.7 mph43%30.21 "Hg4 mi
4:20 PM86 °FWarm.8 mph46%30.21 "Hg3 mi
3:20 PM86 °FWarm.8 mph46%30.21 "Hg3 mi
2:20 PM82 °FWarm.5 mph48%30.24 "Hg4 mi
1:20 PM79 °FWarm.6 mph58%30.24 "Hg4 mi
12:20 PM77 °FPartly sunny.5 mph57%30.24 "HgN/A
11:55 AM75 °FBroken clouds.6 mph61%30.27 "HgN/A
11:20 AM72 °FPartly sunny.6 mph73%30.27 "HgN/A
10:20 AM72 °FPartly sunny.7 mph73%30.24 "HgN/A
9:20 AM68 °FPartly sunny.7 mph78%30.21 "HgN/A
8:20 AM68 °FThunderstorms. Broken clouds.17 mph78%30.21 "HgN/A
7:20 AM70 °FThunderstorms. Broken clouds.8 mph73%30.24 "Hg4 mi
7:04 AM72 °FThunderstorms. Broken clouds.10 mph69%30.24 "Hg5 mi
6:20 AM72 °FSprinkles. Broken clouds.1 mph65%30.21 "HgN/A
5:20 AM72 °FThundershowers. Partly cloudy.8 mph65%30.21 "HgN/A
4:20 AM72 °FMild.7 mph61%30.21 "Hg3 mi
3:20 AM73 °FMild.9 mph57%30.18 "Hg4 mi
2:20 AM73 °FMild.8 mph53%30.15 "Hg3 mi
1:20 AM73 °FMild.6 mph57%30.15 "Hg3 mi
12:20 AM77 °FWarm.10 mph47%30.12 "Hg4 mi
11:20 PM
Thu, Jul 2
79 °FWarm.9 mph45%30.12 "Hg4 mi
10:20 PM81 °FPleasantly warm.8 mph39%30.12 "Hg4 mi
9:20 PM84 °FPleasantly warm.12 mph37%30.12 "Hg1 mi
8:20 PM86 °FPleasantly warm.14 mph38%30.12 "Hg4 mi
7:20 PM88 °FPleasantly warm.13 mph38%30.12 "HgN/A
Weather by CustomWeather, © 2015

See weather overviewHow to use our weather pages